Regional Weather Roundup
Issued by NWS Northern Indiana

Home | Current Version | Previous Version | Text Only | Print | Product List | Glossary Off
Versions: 1 2 3 4 5 6 7 8 9 10 11 12 13 14 15 16 17 18 19 20 21 22 23 24 25 26 27 28 29 30 31 32 33 34 35 36 37 38 39 40 41 42 43 44 45 46 47 48 49 50

000
ASUS43 KIWX 242200
RWRIWX

KIWX WEATHER ROUNDUP
NATIONAL WEATHER SERVICE NORTHERN INDIANA
600 PM EDT FRI MAR 24 2017

NOTE: "FAIR" INDICATES FEW OR NO CLOUDS BELOW 12,000 FEET WITH NO
SIGNIFICANT WEATHER AND/OR OBSTRUCTIONS TO VISIBILITY.

* THESE STATIONS ARE NOT UNDER NWS QUALITY CONTROL. THEY ALSO MAY NOT
  REPORT WEATHER SUCH AS PRECIPITATION OR FOG.

INZ001>027-242300-
NORTHERN INDIANA

CITY           SKY/WX    TMP DP  RH WIND       PRES   REMARKS
SOUTH BEND     CLOUDY    74  55  51 SW25G36   29.94R
ELKHART*       SUNNY     75  54  46 SW14G25   29.93S
GOSHEN         SUNNY     75  53  46 SW24G35   29.95S
MONTICELLO*    PTSUNNY   72  54  52 SW24G33   29.99R
ANGOLA*        MOSUNNY   73  66  78 SW15      29.95F
FORT WAYNE     MOSUNNY   73  54  51 SW22      30.00S
PERU/GRISSOM   MOSUNNY   73  55  53 SW29G36   29.99R

$$
INZ028>050-242300-
CENTRAL INDIANA

CITY           SKY/WX    TMP DP  RH WIND       PRES   REMARKS
LAFAYETTE      PTSUNNY   71  55  56 SW14G23   30.01R
MUNCIE*        SUNNY     74  52  46 SW15G31   30.02F
INDIANAPOLIS   MOSUNNY   73  53  49 SW29G36   30.04S

$$
MIZ043>046-050>051-056>058-064>065-071>073-077>080-242300-
SOUTHWEST LOWER MICHIGAN

CITY           SKY/WX    TMP DP  RH WIND       PRES   REMARKS
BATTLE CREEK   SUNNY     76  49  38 SW21G26   29.92S
BENTON HARBOR  MOSUNNY   70  42  36 W14       29.90S
COLDWATER*     MOSUNNY   74  50  43 SW15G30   29.94S
HILLSDALE*     MOSUNNY   72  52  49 SW16G26   29.95R
HOLLAND        MOSUNNY   66  48  52 NW5       29.91F
GRAND RAPIDS   PTSUNNY   67  47  48 W10       29.91S
KALAMAZOO      PTSUNNY   76  47  35 SW10      29.91S
STURGIS*       PTSUNNY   73  55  52 SW22      29.93S
THREE RIVERS*  FAIR      75  52  43 SW15G21   29.92S

$$
OHZ001>008-015>018-024>025-242300-
NORTHWEST OHIO

CITY           SKY/WX    TMP DP  RH WIND       PRES   REMARKS
DEFIANCE       SUNNY     74  52  46 SW18G33   29.97S
FINDLAY        MOSUNNY   75  53  46 SW24G30   30.00S
TOLEDO EXPRESS MOSUNNY   75  53  46 SW21G33   29.96R
TOLEDO METCALF MOSUNNY   74  57  55 SW21G33   29.96S
LIMA           PTSUNNY   73  54  51 SW21G31   30.03S

$$
AND FOR LAKE MICHIGAN COASTAL AND OPEN LAKE BUOY OBSERVATIONS

STATION/POSITION TEMP    WIND        PRES    VSBY  WAVE
                 AIR SEA DIR/SP/G                  HT/PER
                 (F)     (DEG/KT/KT) (MB)    (MI)  (FT/S)
CALUMET HARBOR    78     200/ 13/ 23 1012.0R
MICHIGAN CITY     73     220/ 25/ 28   N/A
BURNS HARBOR      75     210/ 21/ 33 1013.2R

$$
&&




USA.gov is the U.S. government's official web portal to all federal, state and local government web resources and services.